Location: Anjeux
(47.8815°N, 6.2076°E)
Time: 20:30:37
(UTC+00:00)

YAOGAN 6 - Pass Details

Date: 05 March 2021
Orbit: 464 x 502 km, 97.0° (Epoch: 22 April)

Event Time Altitude Azimuth Distance (km) Brightness Sun altitude
Rises 05:04:18 0° 16° (NNE) 2,541 6.5 -11.5°
Reaches altitude 10° 05:06:26 10° 22° (NNE) 1,651 5.6 -11.2°
Maximum altitude 05:09:53 50° 99° (E) 605 3.5 -10.6°
Drops below altitude 10° 05:13:17 10° 176° (S) 1,621 5.2 -10.0°
Sets 05:15:21 0° 182° (S) 2,489 6.1 -9.7°
